| time (UTC) | temp C | wind direction | speed KPH | gust KPH | rain 1hr cm | rain 24hr cm | rain mn cm | humidity % | barometer mb |
| 20260506001547 | 6 | 329 | 20.9 | 27.4 | 0.00 | 0.00 | 0.00 | 37 | 1020.0 |
| 20260506000055 | 6 | 310 | 22.5 | 37.0 | 0.00 | 0.00 | 0.00 | 37 | 1020.0 |
| 20260505234542 | 6 | 346 | 20.9 | 37.0 | 0.00 | 0.00 | 0.00 | 38 | 1020.0 |
| 20260505233037 | 6 | 335 | 22.5 | 33.8 | 0.00 | 0.00 | 0.00 | 36 | 1019.8 |
| 20260505231538 | 6 | 323 | 22.5 | 37.0 | 0.00 | 0.00 | 0.00 | 37 | 1019.8 |
| 20260505230044 | 6 | 343 | 29.0 | 35.4 | 0.00 | 0.00 | 0.00 | 37 | 1019.7 |
| 20260505224544 | 6 | 327 | 20.9 | 35.4 | 0.00 | 0.00 | 0.00 | 36 | 1019.7 |
| 20260505223039 | 6 | 339 | 22.5 | 35.4 | 0.00 | 0.00 | 0.00 | 36 | 1019.7 |
| 20260505221536 | 6 | 350 | 29.0 | 37.0 | 0.00 | 0.00 | 0.00 | 36 | 1019.6 |
| 20260505220032 | 6 | 332 | 30.6 | 37.0 | 0.00 | 0.00 | 0.00 | 37 | 1019.7 |
| 20260505214531 | 6 | 309 | 19.3 | 33.8 | 0.00 | 0.00 | 0.00 | 38 | 1019.8 |
| 20260505213031 | 5 | 316 | 20.9 | 40.2 | 0.00 | 0.00 | 0.00 | 38 | 1019.9 |
| 20260505211539 | 6 | 323 | 25.7 | 37.0 | 0.00 | 0.00 | 0.00 | 39 | 1019.9 |
| 20260505210028 | 6 | 325 | 27.4 | 41.8 | 0.00 | 0.00 | 0.00 | 38 | 1020.0 |
| 20260505204524 | 5 | 309 | 24.1 | 38.6 | 0.00 | 0.00 | 0.00 | 40 | 1020.1 |
| 20260505203023 | 5 | 347 | 22.5 | 30.6 | 0.00 | 0.00 | 0.00 | 40 | 1020.1 |
| 20260505201522 | 5 | 305 | 22.5 | 37.0 | 0.00 | 0.00 | 0.00 | 39 | 1020.4 |
| 20260505200122 | 5 | 339 | 25.7 | 38.6 | 0.00 | 0.00 | 0.00 | 39 | 1020.3 |
| 20260505194520 | 5 | 336 | 22.5 | 37.0 | 0.00 | 0.00 | 0.00 | 39 | 1020.5 |
| 20260505193017 | 5 | 317 | 22.5 | 38.6 | 0.00 | 0.00 | 0.00 | 40 | 1020.4 |
| 20260505191519 | 5 | 309 | 19.3 | 29.0 | 0.00 | 0.00 | 0.00 | 41 | 1020.2 |
| 20260505190016 | 4 | 350 | 19.3 | 40.2 | 0.00 | 0.00 | 0.00 | 41 | 1020.2 |
| 20260505184514 | 4 | 330 | 20.9 | 33.8 | 0.00 | 0.00 | 0.00 | 42 | 1020.3 |
| 20260505183014 | 3 | 333 | 17.7 | 37.0 | 0.00 | 0.00 | 0.00 | 43 | 1020.2 |
| 20260505181512 | 3 | 349 | 27.4 | 35.4 | 0.00 | 0.00 | 0.00 | 42 | 1020.3 |
| 20260505180010 | 3 | 300 | 24.1 | 35.4 | 0.00 | 0.00 | 0.00 | 43 | 1020.3 |
| 20260505174609 | 3 | 350 | 20.9 | 43.5 | 0.00 | 0.00 | 0.00 | 43 | 1020.3 |
| 20260505173008 | 3 | 318 | 20.9 | 40.2 | 0.00 | 0.00 | 0.00 | 44 | 1020.3 |
| 20260505171514 | 3 | 336 | 22.5 | 37.0 | 0.00 | 0.00 | 0.00 | 43 | 1020.1 |
| 20260505170008 | 3 | 333 | 25.7 | 45.1 | 0.00 | 0.00 | 0.00 | 42 | 1020.1 |
| 20260505164505 | 3 | 339 | 25.7 | 38.6 | 0.00 | 0.00 | 0.00 | 41 | 1019.9 |
| 20260505163009 | 2 | 300 | 20.9 | 33.8 | 0.00 | 0.00 | 0.00 | 45 | 1020.1 |
| 20260505161502 | 3 | 319 | 29.0 | 35.4 | 0.00 | 0.00 | 0.00 | 44 | 1019.9 |
| 20260505153056 | 2 | 315 | 29.0 | 38.6 | 0.00 | 0.00 | 0.00 | 49 | 1020.1 |
| 20260505151551 | 1 | 323 | 25.7 | 33.8 | 0.00 | 0.00 | 0.00 | 53 | 1020.1 |
| 20260505124526 | 1 | 323 | 17.7 | 24.1 | 0.00 | 0.00 | 0.00 | 66 | 1018.8 |
| 20260505123027 | 1 | 314 | 16.1 | 20.9 | 0.00 | 0.00 | 0.00 | 66 | 1018.8 |
| 20260505121517 | 0 | 312 | 14.5 | 20.9 | 0.00 | 0.00 | 0.00 | 68 | 1018.6 |
| 20260505120014 | 0 | 296 | 9.7 | 16.1 | 0.00 | 0.00 | 0.00 | 68 | 1018.5 |
| 20260505114512 | 0 | 300 | 16.1 | 20.9 | 0.00 | 0.00 | 0.00 | 67 | 1018.6 |
| 20260505113013 | 0 | 302 | 8.0 | 16.1 | 0.00 | 0.00 | 0.00 | 67 | 1018.3 |
| 20260505111511 | 0 | 304 | 11.3 | 16.1 | 0.00 | 0.00 | 0.00 | 67 | 1018.3 |
| 20260505101505 | 1 | 289 | 12.9 | 19.3 | 0.00 | 0.00 | 0.00 | 65 | 1018.2 |
| 20260505100003 | 1 | 298 | 14.5 | 20.9 | 0.00 | 0.00 | 0.00 | 65 | 1018.1 |
| 20260505094559 | 1 | 312 | 14.5 | 17.7 | 0.00 | 0.00 | 0.00 | 64 | 1017.9 |
| 20260505093057 | 1 | 303 | 12.9 | 20.9 | 0.00 | 0.00 | 0.00 | 64 | 1017.7 |
| 20260505091557 | 1 | 294 | 14.5 | 22.5 | 0.00 | 0.00 | 0.00 | 63 | 1017.6 |
| 20260505090056 | 1 | 293 | 11.3 | 17.7 | 0.00 | 0.00 | 0.00 | 62 | 1017.6 |
| 20260505084601 | 1 | 296 | 14.5 | 20.9 | 0.00 | 0.00 | 0.00 | 62 | 1017.6 |
| 20260505083105 | 1 | 295 | 14.5 | 20.9 | 0.00 | 0.00 | 0.00 | 61 | 1017.6 |
| 20260505081548 | 1 | 304 | 12.9 | 20.9 | 0.00 | 0.00 | 0.00 | 61 | 1017.6 |
| 20260505080047 | 1 | 309 | 9.7 | 17.7 | 0.00 | 0.00 | 0.00 | 61 | 1017.4 |
| 20260505074546 | 1 | 304 | 14.5 | 19.3 | 0.00 | 0.00 | 0.00 | 60 | 1017.4 |
| 20260505073049 | 1 | 308 | 12.9 | 19.3 | 0.00 | 0.00 | 0.00 | 60 | 1017.3 |
| 20260505071543 | 1 | 311 | 14.5 | 20.9 | 0.00 | 0.00 | 0.00 | 59 | 1017.3 |
| 20260505070042 | 1 | 304 | 14.5 | 19.3 | 0.00 | 0.00 | 0.00 | 59 | 1017.4 |
| 20260505064558 | 2 | 313 | 14.5 | 19.3 | 0.00 | 0.00 | 0.00 | 58 | 1017.3 |
| 20260505063037 | 2 | 323 | 12.9 | 16.1 | 0.00 | 0.00 | 0.00 | 59 | 1017.5 |
| 20260505061535 | 2 | 332 | 9.7 | 17.7 | 0.00 | 0.00 | 0.00 | 58 | 1017.3 |
| 20260505060034 | 2 | 317 | 11.3 | 19.3 | 0.00 | 0.00 | 0.00 | 56 | 1017.2 |
| 20260505054544 | 2 | 323 | 14.5 | 20.9 | 0.00 | 0.00 | 0.00 | 56 | 1017.2 |
| 20260505053033 | 2 | 337 | 14.5 | 19.3 | 0.00 | 0.00 | 0.00 | 56 | 1017.2 |
| 20260505051529 | 2 | 339 | 12.9 | 19.3 | 0.00 | 0.00 | 0.00 | 56 | 1017.0 |
| 20260505041522 | 2 | 351 | 16.1 | 24.1 | 0.00 | 0.00 | 0.00 | 55 | 1016.7 |
| 20260505040021 | 2 | 351 | 22.5 | 29.0 | 0.00 | 0.00 | 0.00 | 54 | 1016.6 |
| 20260505034525 | 2 | 351 | 12.9 | 17.7 | 0.00 | 0.00 | 0.00 | 54 | 1016.5 |
| 20260505033015 | 3 | 350 | 12.9 | 19.3 | 0.00 | 0.00 | 0.00 | 53 | 1016.2 |
| 20260505031511 | 3 | 354 | 12.9 | 19.3 | 0.00 | 0.00 | 0.00 | 52 | 1015.9 |
| 20260505030029 | 3 | 358 | 14.5 | 25.7 | 0.00 | 0.00 | 0.00 | 51 | 1015.6 |
| 20260505024514 | 4 | 348 | 19.3 | 30.6 | 0.00 | 0.00 | 0.00 | 50 | 1015.4 |
| 20260505023006 | 4 | 342 | 24.1 | 33.8 | 0.00 | 0.00 | 0.00 | 50 | 1015.1 |
| 20260505021504 | 4 | 350 | 22.5 | 33.8 | 0.00 | 0.00 | 0.00 | 49 | 1014.8 |
| 20260505020002 | 5 | 346 | 22.5 | 32.2 | 0.00 | 0.00 | 0.00 | 50 | 1014.5 |
| 20260505014603 | 5 | 352 | 24.1 | 33.8 | 0.00 | 0.00 | 0.00 | 49 | 1014.3 |
| 20260505013058 | 5 | 341 | 25.7 | 33.8 | 0.00 | 0.00 | 0.00 | 49 | 1014.0 |
| 20260505011601 | 5 | 326 | 29.0 | 38.6 | 0.00 | 0.00 | 0.00 | 48 | 1013.8 |
| 20260505010109 | 5 | 325 | 24.1 | 43.5 | 0.00 | 0.00 | 0.00 | 49 | 1013.7 |
| 20260505004610 | 6 | 330 | 27.4 | 37.0 | 0.00 | 0.00 | 0.00 | 47 | 1013.6 |
| 20260505003057 | 6 | 327 | 29.0 | 40.2 | 0.00 | 0.00 | 0.00 | 47 | 1013.5 |